Regional Weather Roundup
Issued by NWS Little Rock, AR

Home | Current Version | Previous Version | Text Only | Print | Product List | Glossary Off
Versions: 1 2 3 4 5 6 7 8 9 10 11 12 13 14 15 16 17 18 19 20 21 22 23 24 25 26 27 28 29

000
ASUS44 KLZK 292205
RWRLZK

WEATHER ROUNDUP FOR ARKANSAS
NATIONAL WEATHER SERVICE LITTLE ROCK AR
500 PM CDT WED OCT 29 2014

NOTE: "FAIR" INDICATES FEW OR NO CLOUDS BELOW 12,000 FEET WITH NO
SIGNIFICANT WEATHER AND/OR OBSTRUCTIONS TO VISIBILITY.

ARZ001-003-010-029-292300-
NORTHWEST ARKANSAS

CITY           SKY/WX    TMP DP  RH WIND       PRES   REMARKS
FAYETTEVILLE   SUNNY     65  36  34 NW7       30.17F
FORT SMITH     SUNNY     71  36  27 SW6       30.15S
HARRISON       SUNNY     65  34  31 NW6       30.17S
BENTONVILLE    SUNNY     66  34  30 SW5       30.17F
SILOAM SPGS    SUNNY     66  34  30 CALM      30.18F
HIGHFILL       SUNNY     66  34  30 SW3       30.17S
SPRINGDALE     SUNNY     66  36  32 NW8       30.19F
$$

ARZ004-005-016-292300-
NORTH CENTRAL ARKANSAS

CITY           SKY/WX    TMP DP  RH WIND       PRES   REMARKS
BATESVILLE     SUNNY     68  37  32 CALM      30.14S
FLIPPIN        SUNNY     66  34  30 NW6       30.15F
MTN HOME       SUNNY     66  35  31 CALM      30.14F
$$

ARZ040-041-292300-
WEST CENTRAL ARKANSAS

CITY           SKY/WX    TMP DP  RH WIND       PRES   REMARKS
MENA           SUNNY     72  32  23 CALM      30.17S
MOUNT IDA      SUNNY     68  40  35 CALM      30.14S
$$

ARZ009-017-025-026-028-292300-
NORTHEAST ARKANSAS

CITY           SKY/WX    TMP DP  RH WIND       PRES   REMARKS
CORNING        FAIR      66  32  28 NW9       30.14S
JONESBORO      SUNNY     67  43  41 CALM      30.13F
NEWPORT        SUNNY     69  39  33 N10       30.14F
WALNUT RIDGE   SUNNY     68  36  30 N6        30.13S
BLYTHEVILLE    SUNNY     68  44  42 NW9       30.13F
$$

ARZ022-023-033-042-044-292300-
CENTRAL ARKANSAS

CITY           SKY/WX    TMP DP  RH WIND       PRES   REMARKS
LITTLE ROCK    SUNNY     71  36  27 NW7       30.14F
N LITTLE ROCK  SUNNY     68  42  39 W5        30.14F
JACKSONVILLE   SUNNY     71  41  33 NW1       30.14F
SEARCY         SUNNY     71  42  35 CALM      30.15F
HOT SPRINGS    SUNNY     71  36  27 VRB5      30.16R
RUSSELLVILLE   SUNNY     71  38  29 SW5       30.14S
$$

ARZ036-292300-
EAST ARKANSAS

CITY           SKY/WX    TMP DP  RH WIND       PRES   REMARKS
WEST MEMPHIS   SUNNY     67  42  40 NW3       30.13S
$$

ARZ050-053-066-070-073-292300-
SOUTHWEST ARKANSAS

CITY           SKY/WX    TMP DP  RH WIND       PRES   REMARKS
ARKADELPHIA    FAIR      72  47  40 CALM      30.15S
CAMDEN         SUNNY     72  39  30 N5        30.15S
TEXARKANA      SUNNY     72  39  30 E6        30.15R
EL DORADO      SUNNY     71  44  37 N7        30.15S
DE QUEEN       SUNNY     73  43  33 E3        30.13S
$$

ARZ056-057-069-292300-
SOUTHEAST ARKANSAS

CITY           SKY/WX    TMP DP  RH WIND       PRES   REMARKS
PINE BLUFF     SUNNY     69  42  37 N8        30.15F
STUTTGART      SUNNY     68  41  37 N7        30.15F
MONTICELLO     SUNNY     69  44  40 N3        30.14F

$$





USA.gov is the U.S. government's official web portal to all federal, state and local government web resources and services.